Time,TemperatureF,DewpointF,PressureIn,WindDirection,WindDirectionDegrees,WindSpeedMPH,WindSpeedGustMPH,Humidity,HourlyPrecipIn,Conditions,Clouds,dailyrainin,SoftwareType,DateUTC
2013-02-19 00:02:00,-999.0,-99.9,29.55,ESE,105,11.0,13.0,-999,-99.99,,,-99.99,,2013-02-19 05:02:00,
2013-02-19 00:13:00,-999.0,-99.9,29.55,ESE,116,8.0,12.0,-999,-99.99,,,-99.99,,2013-02-19 05:13:00,
2013-02-19 00:23:00,-999.0,-99.9,29.54,ESE,112,11.0,13.0,-999,-99.99,,,-99.99,,2013-02-19 05:23:00,
2013-02-19 00:33:00,-999.0,-99.9,29.53,ESE,115,9.0,13.0,-999,-99.99,,,-99.99,,2013-02-19 05:33:00,
2013-02-19 00:43:00,-999.0,-99.9,29.52,ESE,113,9.0,15.0,-999,-99.99,,,-99.99,,2013-02-19 05:43:00,
2013-02-19 00:53:00,31.0,-99.9,29.52,ESE,111,9.0,15.0,-999,-99.99,,,-99.99,,2013-02-19 05:53:00,
2013-02-19 01:03:00,-999.0,-99.9,29.51,ESE,115,11.0,16.0,-999,-99.99,,,-99.99,,2013-02-19 06:03:00,
2013-02-19 01:12:00,-999.0,-99.9,29.50,ESE,106,11.0,14.0,-999,-99.99,,,-99.99,,2013-02-19 06:12:00,
2013-02-19 01:22:00,32.0,-99.9,29.49,ESE,115,10.0,13.0,-999,-99.99,,,-99.99,,2013-02-19 06:22:00,
2013-02-19 01:33:00,-999.0,-99.9,29.49,ESE,117,10.0,14.0,-999,-99.99,,,-99.99,,2013-02-19 06:33:00,
2013-02-19 01:42:00,-999.0,-99.9,29.47,ESE,114,11.0,17.0,-999,-99.99,,,-99.99,,2013-02-19 06:42:00,
2013-02-19 01:53:00,32.0,-99.9,29.47,ESE,112,12.0,21.0,-999,-99.99,,,-99.99,,2013-02-19 06:53:00,
2013-02-19 02:02:00,-999.0,-99.9,29.46,ESE,116,8.0,16.0,-999,-99.99,,,-99.99,,2013-02-19 07:02:00,
2013-02-19 02:12:00,-999.0,-99.9,29.45,ESE,112,11.0,15.0,-999,-99.99,,,-99.99,,2013-02-19 07:12:00,
2013-02-19 02:22:00,32.0,-99.9,29.45,ESE,117,10.0,18.0,-999,-99.99,,,-99.99,,2013-02-19 07:22:00,
2013-02-19 02:33:00,-999.0,-99.9,29.44,ESE,117,7.0,14.0,-999,-99.99,,,-99.99,,2013-02-19 07:33:00,
2013-02-19 02:42:00,-999.0,-99.9,29.42,East,97,12.0,15.0,-999,-99.99,,,-99.99,,2013-02-19 07:42:00,
2013-02-19 02:52:00,32.0,-99.9,29.42,East,88,12.0,15.0,-999,-99.99,,,-99.99,,2013-02-19 07:52:00,
2013-02-19 03:02:00,-999.0,-99.9,29.41,East,94,10.0,15.0,-999,-99.99,,,-99.99,,2013-02-19 08:02:00,
2013-02-19 03:12:00,-999.0,-99.9,29.39,East,93,9.0,11.0,-999,-99.99,,,-99.99,,2013-02-19 08:12:00,
2013-02-19 03:22:00,31.0,-99.9,29.39,East,87,11.0,14.0,-999,-99.99,,,-99.99,,2013-02-19 08:22:00,
2013-02-19 03:32:00,-999.0,-99.9,29.38,East,98,12.0,15.0,-999,-99.99,,,-99.99,,2013-02-19 08:32:00,
2013-02-19 03:42:00,-999.0,-99.9,29.37,ESE,102,10.0,17.0,-999,-99.99,,,-99.99,,2013-02-19 08:42:00,
2013-02-19 03:52:00,-999.0,-99.9,29.36,ESE,103,12.0,18.0,-999,-99.99,,,-99.99,,2013-02-19 08:52:00,
2013-02-19 04:02:00,-999.0,-99.9,29.36,ESE,109,14.0,19.0,-999,-99.99,,,-99.99,,2013-02-19 09:02:00,
2013-02-19 04:11:00,-999.0,-99.9,29.34,ESE,102,11.0,16.0,-999,-99.99,,,-99.99,,2013-02-19 09:11:00,
2013-02-19 04:22:00,32.0,-99.9,29.34,ESE,107,11.0,15.0,-999,-99.99,,,-99.99,,2013-02-19 09:22:00,
2013-02-19 04:32:00,-999.0,-99.9,29.33,ESE,108,14.0,19.0,-999,-99.99,,,-99.99,,2013-02-19 09:32:00,
2013-02-19 04:42:00,-999.0,-99.9,29.32,ESE,105,11.0,15.0,-999,-99.99,,,-99.99,,2013-02-19 09:42:00,
2013-02-19 04:53:00,-999.0,-99.9,29.31,ESE,108,11.0,21.0,-999,-99.99,,,-99.99,,2013-02-19 09:53:00,
2013-02-19 05:02:00,32.0,-99.9,29.30,East,100,11.0,15.0,-999,-99.99,,,-99.99,,2013-02-19 10:02:00,
2013-02-19 05:11:00,32.0,-99.9,29.29,East,101,11.0,17.0,-999,-99.99,,,-99.99,,2013-02-19 10:11:00,
2013-02-19 05:22:00,32.0,-99.9,29.29,ESE,102,9.0,14.0,-999,-99.99,,,-99.99,,2013-02-19 10:22:00,
2013-02-19 05:32:00,32.0,-99.9,29.28,ESE,103,11.0,14.0,-999,-99.99,,,-99.99,,2013-02-19 10:32:00,
2013-02-19 05:42:00,32.0,-99.9,29.27,East,96,11.0,14.0,-999,-99.99,,,-99.99,,2013-02-19 10:42:00,
2013-02-19 05:52:00,32.0,-99.9,29.26,East,99,12.0,16.0,-999,-99.99,,,-99.99,,2013-02-19 10:52:00,
2013-02-19 06:02:00,32.0,-99.9,29.26,East,96,11.0,15.0,-999,-99.99,,,-99.99,,2013-02-19 11:02:00,
2013-02-19 06:12:00,32.0,-99.9,29.25,ESE,103,11.0,15.0,-999,-99.99,,,-99.99,,2013-02-19 11:12:00,
2013-02-19 06:22:00,32.0,-99.9,29.24,East,95,12.0,16.0,-999,-99.99,,,-99.99,,2013-02-19 11:22:00,
2013-02-19 06:32:00,32.0,-99.9,29.24,ESE,102,10.0,15.0,-999,-99.99,,,-99.99,,2013-02-19 11:32:00,
2013-02-19 06:42:00,32.0,-99.9,29.23,East,97,10.0,13.0,-999,-99.99,,,-99.99,,2013-02-19 11:42:00,
2013-02-19 06:52:00,32.0,-99.9,29.23,East,93,13.0,17.0,-999,-99.99,,,-99.99,,2013-02-19 11:52:00,
2013-02-19 07:02:00,32.0,-99.9,29.22,East,93,13.0,17.0,-999,-99.99,,,-99.99,,2013-02-19 12:02:00,
2013-02-19 07:12:00,33.0,-99.9,29.21,East,95,15.0,20.0,-999,-99.99,,,-99.99,,2013-02-19 12:12:00,
2013-02-19 07:22:00,32.0,-99.9,29.21,East,91,11.0,17.0,-999,-99.99,,,-99.99,,2013-02-19 12:22:00,
2013-02-19 07:33:00,32.0,-99.9,29.20,East,90,13.0,17.0,-999,-99.99,,,-99.99,,2013-02-19 12:33:00,
2013-02-19 07:42:00,32.0,-99.9,29.19,East,95,13.0,17.0,-999,-99.99,,,-99.99,,2013-02-19 12:42:00,
2013-02-19 07:53:00,32.0,-99.9,29.19,East,93,12.0,16.0,-999,-99.99,,,-99.99,,2013-02-19 12:53:00,
2013-02-19 08:02:00,32.0,-99.9,29.18,East,93,9.0,13.0,-999,-99.99,,,-99.99,,2013-02-19 13:02:00,
2013-02-19 08:11:00,33.0,-99.9,29.18,East,86,11.0,17.0,-999,-99.99,,,-99.99,,2013-02-19 13:11:00,
2013-02-19 08:22:00,32.0,-99.9,29.18,East,85,11.0,13.0,-999,-99.99,,,-99.99,,2013-02-19 13:22:00,
2013-02-19 08:32:00,32.0,-99.9,29.17,East,81,8.0,10.0,-999,-99.99,,,-99.99,,2013-02-19 13:32:00,
2013-02-19 08:42:00,33.0,-99.9,29.17,East,88,7.0,10.0,-999,-99.99,,,-99.99,,2013-02-19 13:42:00,
2013-02-19 08:52:00,33.0,-99.9,29.17,East,91,7.0,9.0,-999,-99.99,,,-99.99,,2013-02-19 13:52:00,
2013-02-19 09:02:00,33.0,-99.9,29.17,ESE,102,9.0,11.0,-999,-99.99,,,-99.99,,2013-02-19 14:02:00,
2013-02-19 09:12:00,33.0,-99.9,29.17,East,100,6.0,10.0,-999,-99.99,,,-99.99,,2013-02-19 14:12:00,
2013-02-19 09:22:00,33.0,-99.9,29.16,East,94,9.0,10.0,-999,-99.99,,,-99.99,,2013-02-19 14:22:00,
2013-02-19 09:33:00,33.0,-99.9,29.16,ESE,103,10.0,11.0,-999,-99.99,,,-99.99,,2013-02-19 14:33:00,
2013-02-19 09:42:00,33.0,-99.9,29.16,ESE,106,8.0,12.0,-999,-99.99,,,-99.99,,2013-02-19 14:42:00,
2013-02-19 09:52:00,33.0,-99.9,29.16,ESE,105,8.0,11.0,-999,-99.99,,,-99.99,,2013-02-19 14:52:00,
2013-02-19 10:02:00,32.0,-99.9,29.16,ESE,106,9.0,10.0,-999,-99.99,,,-99.99,,2013-02-19 15:02:00,
2013-02-19 10:11:00,32.0,-99.9,29.16,SE,125,6.0,9.0,-999,-99.99,,,-99.99,,2013-02-19 15:11:00,
2013-02-19 10:22:00,33.0,-99.9,29.16,ESE,114,6.0,8.0,-999,-99.99,,,-99.99,,2013-02-19 15:22:00,
2013-02-19 10:32:00,32.0,-99.9,29.16,SE,128,5.0,7.0,-999,-99.99,,,-99.99,,2013-02-19 15:32:00,
2013-02-19 10:42:00,32.0,-99.9,29.16,SE,138,6.0,8.0,-999,-99.99,,,-99.99,,2013-02-19 15:42:00,
2013-02-19 10:52:00,33.0,-99.9,29.16,SE,141,6.0,8.0,-999,-99.99,,,-99.99,,2013-02-19 15:52:00,
2013-02-19 11:02:00,32.0,-99.9,29.16,SSE,150,5.0,9.0,-999,-99.99,,,-99.99,,2013-02-19 16:02:00,
2013-02-19 11:12:00,32.0,-99.9,29.16,SSE,154,5.0,7.0,-999,-99.99,,,-99.99,,2013-02-19 16:12:00,
2013-02-19 11:22:00,32.0,-99.9,29.16,South,179,3.0,7.0,-999,-99.99,,,-99.99,,2013-02-19 16:22:00,
2013-02-19 11:32:00,32.0,-99.9,29.16,SW,231,3.0,5.0,-999,-99.99,,,-99.99,,2013-02-19 16:32:00,
2013-02-19 11:42:00,33.0,-99.9,29.17,West,265,5.0,10.0,-999,-99.99,,,-99.99,,2013-02-19 16:42:00,
2013-02-19 11:52:00,33.0,-99.9,29.17,WNW,290,6.0,10.0,-999,-99.99,,,-99.99,,2013-02-19 16:52:00,
2013-02-19 12:01:00,33.0,-99.9,29.17,West,259,6.0,9.0,-999,-99.99,,,-99.99,,2013-02-19 17:01:00,
2013-02-19 12:11:00,33.0,-99.9,29.18,SW,232,7.0,9.0,-999,-99.99,,,-99.99,,2013-02-19 17:11:00,
2013-02-19 12:21:00,31.0,-99.9,29.18,WSW,239,11.0,15.0,-999,-99.99,,,-99.99,,2013-02-19 17:21:00,
2013-02-19 12:32:00,-999.0,-99.9,29.19,WSW,242,14.0,21.0,-999,-99.99,,,-99.99,,2013-02-19 17:32:00,
2013-02-19 12:42:00,-999.0,-99.9,29.19,WSW,246,15.0,20.0,-999,-99.99,,,-99.99,,2013-02-19 17:42:00,
2013-02-19 12:52:00,30.0,-99.9,29.19,WSW,244,14.0,19.0,-999,-99.99,,,-99.99,,2013-02-19 17:52:00,
2013-02-19 13:02:00,-999.0,-99.9,29.20,WSW,247,10.0,17.0,-999,-99.99,,,-99.99,,2013-02-19 18:02:00,
2013-02-19 13:11:00,-999.0,-99.9,29.20,West,267,10.0,17.0,-999,-99.99,,,-99.99,,2013-02-19 18:11:00,
2013-02-19 13:22:00,30.0,-99.9,29.20,West,260,12.0,20.0,-999,-99.99,,,-99.99,,2013-02-19 18:22:00,
2013-02-19 13:32:00,-999.0,-99.9,29.21,West,269,15.0,23.0,-999,-99.99,,,-99.99,,2013-02-19 18:32:00,
2013-02-19 13:42:00,-999.0,-99.9,29.22,West,276,17.0,23.0,-999,-99.99,,,-99.99,,2013-02-19 18:42:00,
2013-02-19 13:52:00,28.0,-99.9,29.22,West,277,17.0,24.0,-999,-99.99,,,-99.99,,2013-02-19 18:52:00,
2013-02-19 14:01:00,-999.0,-99.9,29.24,WNW,285,20.0,26.0,-999,-99.99,,,-99.99,,2013-02-19 19:01:00,
2013-02-19 14:11:00,-999.0,-99.9,29.25,WNW,293,16.0,24.0,-999,-99.99,,,-99.99,,2013-02-19 19:11:00,
2013-02-19 14:22:00,27.0,-99.9,29.26,WNW,295,15.0,23.0,-999,-99.99,,,-99.99,,2013-02-19 19:22:00,
2013-02-19 14:32:00,-999.0,-99.9,29.27,WNW,302,14.0,23.0,-999,-99.99,,,-99.99,,2013-02-19 19:32:00,
2013-02-19 14:42:00,-999.0,-99.9,29.28,WNW,302,19.0,27.0,-999,-99.99,,,-99.99,,2013-02-19 19:42:00,
2013-02-19 14:52:00,26.0,-99.9,29.29,NW,311,21.0,28.0,-999,-99.99,,,-99.99,,2013-02-19 19:52:00,
2013-02-19 15:02:00,-999.0,-99.9,29.30,NW,307,22.0,28.0,-999,-99.99,,,-99.99,,2013-02-19 20:02:00,
2013-02-19 15:12:00,-999.0,-99.9,29.31,NW,308,17.0,30.0,-999,-99.99,,,-99.99,,2013-02-19 20:12:00,
2013-02-19 15:22:00,26.0,-99.9,29.32,NW,319,23.0,29.0,-999,-99.99,,,-99.99,,2013-02-19 20:22:00,
2013-02-19 15:32:00,-999.0,-99.9,29.33,NW,319,23.0,31.0,-999,-99.99,,,-99.99,,2013-02-19 20:32:00,
2013-02-19 15:42:00,-999.0,-99.9,29.34,NW,317,21.0,30.0,-999,-99.99,,,-99.99,,2013-02-19 20:42:00,
2013-02-19 15:52:00,25.0,-99.9,29.35,NW,321,19.0,26.0,-999,-99.99,,,-99.99,,2013-02-19 20:52:00,
2013-02-19 16:02:00,-999.0,-99.9,29.36,NW,312,25.0,34.0,-999,-99.99,,,-99.99,,2013-02-19 21:02:00,
2013-02-19 16:11:00,-999.0,-99.9,29.37,NW,316,24.0,31.0,-999,-99.99,,,-99.99,,2013-02-19 21:11:00,
2013-02-19 16:22:00,23.0,-99.9,29.38,NW,308,25.0,29.0,-999,-99.99,,,-99.99,,2013-02-19 21:22:00,
2013-02-19 16:32:00,-999.0,-99.9,29.39,NW,308,25.0,32.0,-999,-99.99,,,-99.99,,2013-02-19 21:32:00,
2013-02-19 16:42:00,-999.0,-99.9,29.41,NW,313,28.0,36.0,-999,-99.99,,,-99.99,,2013-02-19 21:42:00,
2013-02-19 16:52:00,21.0,-99.9,29.41,NW,309,23.0,33.0,-999,-99.99,,,-99.99,,2013-02-19 21:52:00,
2013-02-19 17:02:00,-999.0,-99.9,29.43,NW,318,26.0,37.0,-999,-99.99,,,-99.99,,2013-02-19 22:02:00,
2013-02-19 17:11:00,-999.0,-99.9,29.44,NW,319,29.0,38.0,-999,-99.99,,,-99.99,,2013-02-19 22:11:00,
2013-02-19 17:22:00,-999.0,-99.9,29.44,NW,319,29.0,38.0,-999,-99.99,,,-99.99,,2013-02-19 22:22:00,
2013-02-19 17:32:00,-999.0,-99.9,29.44,NW,319,29.0,38.0,-999,-99.99,,,-99.99,,2013-02-19 22:32:00,
2013-02-19 17:42:00,-999.0,-99.9,29.44,NW,319,29.0,38.0,-999,-99.99,,,-99.99,,2013-02-19 22:42:00,
2013-02-19 17:52:00,19.0,-99.9,29.45,NW,315,30.0,38.0,-999,-99.99,,,-99.99,,2013-02-19 22:52:00,
2013-02-19 19:42:00,-999.0,-99.9,29.62,NW,323,22.0,34.0,-999,-99.99,,,-99.99,,2013-02-20 00:42:00,
2013-02-19 19:52:00,13.0,-99.9,29.62,NNW,329,25.0,30.0,-999,-99.99,,,-99.99,,2013-02-20 00:52:00,
2013-02-19 20:02:00,-999.0,-99.9,29.63,NW,319,24.0,30.0,-999,-99.99,,,-99.99,,2013-02-20 01:02:00,
2013-02-19 20:11:00,-999.0,-99.9,29.65,NNW,329,23.0,33.0,-999,-99.99,,,-99.99,,2013-02-20 01:11:00,
2013-02-19 20:22:00,12.0,-99.9,29.65,NNW,333,23.0,32.0,-999,-99.99,,,-99.99,,2013-02-20 01:22:00,
2013-02-19 20:32:00,-999.0,-99.9,29.66,NNW,331,19.0,31.0,-999,-99.99,,,-99.99,,2013-02-20 01:32:00,
2013-02-19 20:42:00,-999.0,-99.9,29.66,NW,322,23.0,31.0,-999,-99.99,,,-99.99,,2013-02-20 01:42:00,
2013-02-19 20:52:00,12.0,-99.9,29.67,NNW,336,23.0,36.0,-999,-99.99,,,-99.99,,2013-02-20 01:52:00,
2013-02-19 21:02:00,-999.0,-99.9,29.68,NNW,328,21.0,27.0,-999,-99.99,,,-99.99,,2013-02-20 02:02:00,
2013-02-19 21:11:00,-999.0,-99.9,29.68,NW,321,24.0,30.0,-999,-99.99,,,-99.99,,2013-02-20 02:11:00,
2013-02-19 21:22:00,-999.0,-99.9,29.69,NW,322,22.0,29.0,-999,-99.99,,,-99.99,,2013-02-20 02:22:00,
2013-02-19 21:32:00,-999.0,-99.9,29.70,NW,325,23.0,30.0,-999,-99.99,,,-99.99,,2013-02-20 02:32:00,
2013-02-19 21:42:00,-999.0,-99.9,29.71,NW,322,19.0,27.0,-999,-99.99,,,-99.99,,2013-02-20 02:42:00,
2013-02-19 21:52:00,10.0,-99.9,29.71,NW,325,18.0,23.0,-999,-99.99,,,-99.99,,2013-02-20 02:52:00,
2013-02-19 22:02:00,-999.0,-99.9,29.72,NW,326,20.0,25.0,-999,-99.99,,,-99.99,,2013-02-20 03:02:00,
2013-02-19 22:12:00,-999.0,-99.9,29.72,NW,326,18.0,25.0,-999,-99.99,,,-99.99,,2013-02-20 03:12:00,
2013-02-19 22:22:00,10.0,-99.9,29.73,NNW,330,19.0,27.0,-999,-99.99,,,-99.99,,2013-02-20 03:22:00,
2013-02-19 22:32:00,-999.0,-99.9,29.74,NW,322,20.0,25.0,-999,-99.99,,,-99.99,,2013-02-20 03:32:00,
2013-02-19 22:42:00,-999.0,-99.9,29.75,NNW,331,21.0,26.0,-999,-99.99,,,-99.99,,2013-02-20 03:42:00,
2013-02-19 22:52:00,-999.0,-99.9,29.75,NNW,332,19.0,28.0,-999,-99.99,,,-99.99,,2013-02-20 03:52:00,
2013-02-19 23:02:00,-999.0,-99.9,29.76,NNW,340,20.0,29.0,-999,-99.99,,,-99.99,,2013-02-20 04:02:00,
2013-02-19 23:11:00,-999.0,-99.9,29.76,NNW,334,16.0,25.0,-999,-99.99,,,-99.99,,2013-02-20 04:11:00,
2013-02-19 23:22:00,9.0,-99.9,29.77,NNW,329,19.0,24.0,-999,-99.99,,,-99.99,,2013-02-20 04:22:00,
2013-02-19 23:32:00,-999.0,-99.9,29.77,NNW,334,19.0,26.0,-999,-99.99,,,-99.99,,2013-02-20 04:32:00,
2013-02-19 23:42:00,-999.0,-99.9,29.78,NNW,335,20.0,25.0,-999,-99.99,,,-99.99,,2013-02-20 04:42:00,
2013-02-19 23:52:00,9.0,-99.9,29.78,NNW,337,18.0,26.0,-999,-99.99,,,-99.99,,2013-02-20 04:52:00,